GFSSGP_850_temp_021.txt.gz
Temp
22 22 21 21 18 16 18 20 22 23 25 27 27 26 25 25 24 22 25 24 22 21 21 21 20 20 19 19 19 18 17 16 16 15 15 14 14 14 14 14 14 14 14 14 14 15 16 16 16
22 21 21 20 17 17 18 20 23 23 27 27 27 26 25 24 24 24 23 23 23 22 22 21 20 20 19 18 18 18 17 16 16 15 15 14 14 14 14 14 14 14 14 14 14 13 14 15 16
22 21 21 17 15 16 19 22 23 25 27 26 25 25 25 25 25 25 25 24 23 23 22 21 20 20 19 19 18 18 17 16 16 15 14 14 14 13 14 13 14 14 12 12 11 12 13 14 15
21 20 20 17 17 18 21 22 23 23 27 26 26 23 25 26 26 26 25 24 23 23 22 21 20 19 19 19 18 18 17 17 16 15 14 13 13 13 13 13 13 12 13 11 11 11 13 13 14
20 20 17 17 18 19 21 24 25 25 26 26 25 23 24 26 26 26 25 24 24 23 22 21 21 20 20 19 19 18 17 16 16 15 14 13 13 13 13 12 12 12 12 11 11 11 12 13 13
20 19 17 17 19 22 22 25 24 25 26 26 25 23 25 26 25 25 24 24 23 23 22 21 21 20 20 19 19 18 17 16 15 14 13 13 13 13 12 12 12 11 12 12 11 12 12 12 12
18 16 16 18 20 21 22 25 25 24 25 26 27 21 24 25 25 24 24 23 23 22 22 21 20 20 19 19 18 18 16 15 14 13 13 13 12 12 12 12 12 12 11 11 11 11 12 12 12
21 17 18 18 19 20 23 25 26 25 26 27 26 23 23 27 24 23 23 22 22 22 21 21 20 19 19 19 18 17 15 14 13 13 13 13 12 12 12 12 12 12 11 11 11 11 11 12 12
21 16 16 18 19 20 23 23 25 25 26 27 26 27 27 26 23 23 22 22 22 21 21 20 20 19 19 18 17 16 16 14 13 13 12 12 12 12 12 12 12 12 11 11 11 11 12 12 12
19 15 18 21 20 20 22 22 23 24 25 25 27 27 27 26 24 23 23 22 22 22 21 20 20 19 18 17 16 16 15 14 13 13 13 12 12 12 11 11 11 12 12 11 12 12 11 12 12
18 19 21 22 23 22 22 22 23 24 22 25 26 27 27 25 24 23 23 23 23 23 21 21 19 19 18 17 17 15 14 14 13 13 13 12 11 11 11 11 11 11 11 11 11 12 12 12 12
19 19 21 22 23 22 21 23 23 24 24 26 26 27 27 25 25 24 23 23 23 22 21 20 19 18 18 17 16 15 15 14 14 13 12 12 12 12 12 11 11 11 11 11 11 12 11 12 12
18 19 21 22 22 22 22 22 23 24 25 26 26 27 27 26 25 25 24 24 23 22 21 20 19 18 18 17 16 15 15 14 13 13 12 12 12 12 11 11 11 11 11 11 11 11 11 11 11
20 20 20 21 21 22 22 22 23 24 25 26 25 26 26 26 26 24 23 23 23 22 21 20 19 18 17 17 16 16 15 14 14 13 13 12 11 11 11 11 11 11 11 11 11 11 11 11 11
20 18 19 20 21 21 23 21 22 24 25 26 25 26 26 26 25 25 25 24 23 22 20 19 18 18 17 17 16 15 15 14 14 14 13 12 12 11 11 11 11 11 11 11 10 10 11 11 11
18 17 17 20 21 22 22 20 22 25 25 25 26 26 26 26 26 25 25 23 23 21 19 18 18 17 17 17 16 15 15 14 14 14 13 13 12 11 11 11 11 11 11 11 10 10 10 11 11
15 17 17 19 20 20 20 20 21 25 24 24 25 26 25 26 26 25 24 23 22 20 19 18 18 18 17 17 16 15 14 14 14 14 13 13 12 12 11 11 11 11 11 11 11 11 11 11 11
16 15 16 18 20 19 19 19 21 23 23 24 24 25 24 26 26 25 24 23 21 19 18 18 18 18 17 16 15 15 15 14 14 13 12 12 12 12 11 11 11 11 11 11 11 11 10 11 11
18 17 17 18 21 20 19 19 21 22 23 22 23 25 26 26 25 24 24 22 19 18 17 18 18 17 16 16 15 15 14 14 13 13 12 12 12 11 11 11 11 11 11 11 11 10 10 11 11
17 17 17 19 20 20 19 19 21 20 21 23 24 25 23 24 24 24 21 19 19 18 17 17 17 16 16 15 15 15 14 13 13 12 12 12 12 11 11 11 11 11 11 11 11 10 11 11 11
17 17 18 18 20 20 19 19 20 22 22 23 25 25 25 26 25 20 18 18 17 17 18 18 17 16 15 15 15 14 14 14 13 12 12 12 12 11 11 11 11 11 11 11 11 11 11 11 11
17 19 19 19 18 16 19 16 19 19 20 21 23 25 25 24 20 19 18 17 17 18 17 17 16 15 14 15 14 14 14 14 13 12 12 12 12 12 11 12 12 12 11 11 11 11 11 12 12
19 20 19 18 17 17 18 16 18 19 20 20 20 24 23 21 20 17 18 17 17 18 17 16 15 14 14 14 14 14 14 14 13 12 12 12 11 11 11 12 12 12 12 11 12 12 12 12 12
20 19 18 17 16 16 18 17 17 19 20 21 23 21 19 19 18 17 17 17 17 17 16 15 15 14 14 14 13 14 13 13 13 12 12 12 11 11 12 12 12 12 12 12 12 12 12 12 13
18 15 13 13 13 15 18 16 19 19 19 21 21 19 18 17 17 18 17 17 17 16 16 15 15 14 13 13 13 13 13 13 13 12 12 12 12 11 12 12 12 12 12 12 12 12 12 12 13
17 17 13 14 14 16 18 17 19 20 21 22 24 21 18 18 18 17 17 17 17 16 15 15 15 14 14 14 13 13 13 13 13 13 12 12 12 12 12 12 12 12 12 12 12 12 12 12 13
17 16 18 16 17 16 16 18 20 22 21 18 16 17 17 18 18 17 17 18 17 16 16 15 14 14 14 13 13 13 13 13 13 13 12 12 12 12 12 12 12 12 12 12 12 12 12 12 12
17 18 17 14 16 17 17 19 19 22 20 17 15 15 16 16 16 17 17 17 17 16 16 15 15 14 14 14 13 13 13 13 13 13 12 12 12 12 13 12 12 12 12 13 12 12 12 12 12
17 17 16 17 16 14 15 16 17 20 18 17 16 16 17 18 18 18 18 18 17 16 16 15 15 14 14 14 13 13 13 13 13 13 12 12 13 12 13 13 13 12 12 12 13 13 12 12 12
19 18 17 18 15 17 16 18 20 18 18 18 17 18 19 19 19 18 18 18 17 16 16 15 15 14 14 14 13 13 13 13 13 13 12 12 12 13 13 13 13 12 12 12 12 12 12 12 13

GFSSGP_850_temp_024.txt.gz
Temp
21 21 21 21 18 15 17 19 21 22 24 26 25 24 22 24 20 20 26 25 24 23 22 21 21 20 20 19 19 18 18 17 16 16 16 16 15 15 15 14 14 15 15 15 15 15 15 16 16
21 21 21 20 16 17 17 19 21 22 25 26 25 26 24 25 25 25 25 25 23 23 22 21 21 20 20 19 19 18 17 17 16 15 15 15 14 14 14 14 14 13 12 13 13 14 14 15 15
21 21 21 16 15 16 18 20 22 24 24 25 25 25 25 25 26 26 26 25 24 23 22 21 21 20 20 19 19 18 18 17 16 16 15 14 14 14 14 13 14 13 11 11 12 12 12 14 14
21 21 19 17 17 18 19 20 22 22 26 25 25 24 25 26 27 27 26 25 24 24 22 21 21 20 20 19 19 18 18 17 17 16 15 14 14 13 13 13 13 13 13 11 12 12 11 13 13
21 20 17 17 17 18 19 22 22 22 23 25 24 24 25 26 27 26 26 25 24 24 23 22 21 20 20 19 18 18 17 17 16 15 15 14 13 13 13 13 13 13 13 12 11 11 11 12 13
20 18 17 17 18 20 20 24 23 23 24 25 24 23 26 27 27 26 26 25 24 24 23 22 21 20 19 19 18 18 17 17 16 15 15 14 13 13 13 13 12 12 12 12 12 12 12 12 13
18 15 16 17 19 20 20 24 23 24 23 25 25 23 26 28 27 26 25 24 24 23 23 22 21 20 19 19 18 18 17 16 16 15 14 13 13 12 12 12 12 12 11 12 12 12 12 12 12
20 16 17 17 19 20 23 24 24 24 24 25 25 23 25 28 27 26 24 24 23 23 22 22 21 20 19 19 18 18 17 17 16 14 13 13 12 12 12 12 12 13 12 11 10 11 12 12 12
20 15 15 17 18 19 23 23 23 24 24 25 24 26 26 27 26 25 24 23 23 23 22 21 21 20 19 18 18 18 17 16 16 14 13 13 12 12 12 12 12 12 12 12 11 12 12 12 12
18 14 16 19 18 19 21 21 22 22 23 23 23 24 25 26 25 25 25 24 23 23 22 21 21 20 19 18 18 17 17 16 15 14 13 13 12 12 11 12 12 12 12 12 12 12 12 12 12
17 18 19 20 22 21 20 21 22 22 21 23 23 24 25 25 24 24 25 25 25 24 23 22 20 19 19 18 18 17 17 16 14 13 13 12 12 11 11 11 11 12 11 11 11 11 11 12 11
17 18 21 21 21 21 20 21 21 22 22 23 24 24 25 25 24 25 25 25 24 24 23 22 20 19 18 18 17 17 17 15 14 13 13 12 12 11 11 11 11 11 11 11 11 11 11 11 11
17 18 20 20 21 21 21 20 20 21 23 23 24 24 25 26 25 25 26 25 24 24 23 21 20 19 18 17 17 17 16 15 14 13 13 12 12 12 11 11 11 11 11 11 11 11 11 11 11
18 19 19 20 20 20 20 20 21 22 23 23 24 25 25 25 26 25 25 25 24 24 22 21 20 19 18 17 17 17 15 14 14 13 13 13 12 12 12 11 11 11 11 11 11 11 11 11 11
19 17 17 18 20 19 21 19 19 22 22 23 24 25 25 26 25 25 26 26 25 24 22 20 19 18 17 17 17 16 15 14 14 13 13 13 13 12 11 11 11 11 11 11 11 11 11 11 11
18 17 17 20 20 20 20 18 20 22 22 23 24 25 25 26 25 25 26 26 25 24 21 20 19 18 17 17 17 15 15 14 14 13 13 13 13 12 12 11 11 11 11 11 11 11 11 11 11
15 16 16 17 21 19 19 19 21 23 22 22 23 24 25 25 25 25 25 24 24 23 21 19 18 17 17 16 16 15 14 14 14 13 13 12 12 12 11 11 11 11 11 11 11 10 10 10 11
14 15 15 17 20 18 17 16 19 21 21 21 23 24 24 25 26 25 24 23 22 21 20 19 17 17 16 16 15 15 15 14 14 13 12 12 12 12 12 11 11 11 11 11 10 10 10 10 11
17 17 17 19 19 18 17 17 19 20 20 20 22 23 25 26 25 25 24 23 21 20 19 18 17 17 16 15 15 15 15 14 13 13 12 12 12 11 11 11 11 11 11 10 10 10 10 10 11
17 17 16 19 19 19 17 17 18 19 19 21 22 23 24 24 25 24 24 23 20 20 18 17 17 17 16 15 15 15 15 14 14 13 12 12 12 12 11 11 11 11 11 10 10 10 10 10 11
16 16 17 18 17 18 17 17 18 19 20 21 23 23 24 23 23 22 22 19 18 17 16 17 17 16 15 15 15 15 14 14 13 13 12 11 12 12 11 11 11 11 11 10 10 10 10 11 11
16 17 18 17 16 14 17 14 17 18 18 19 22 24 25 24 21 20 19 17 17 16 17 17 16 15 15 15 14 14 14 14 13 12 12 12 12 12 11 11 11 11 11 11 11 11 11 11 12
17 19 18 17 15 16 17 14 16 18 18 19 19 25 25 23 20 19 17 17 16 16 17 16 15 15 15 14 14 14 14 13 13 13 12 12 12 12 11 11 11 11 11 11 11 11 11 11 12
19 18 16 15 14 13 15 15 17 16 19 20 20 23 22 19 17 17 17 16 16 16 16 16 15 15 14 13 13 13 13 13 13 12 12 12 12 12 11 11 11 11 11 11 11 11 12 11 12
16 14 12 12 12 12 17 15 18 17 17 19 20 21 19 15 17 17 16 16 16 16 16 15 15 15 14 13 13 13 13 13 13 12 12 12 12 12 12 11 11 11 12 12 12 12 12 12 12
16 15 12 13 12 15 17 15 17 18 20 22 23 21 19 16 15 16 16 16 17 16 16 16 15 14 14 13 13 13 13 13 13 12 12 12 12 12 12 11 11 11 12 12 12 12 12 12 12
15 15 14 15 15 14 15 16 19 18 19 18 17 17 16 16 15 16 16 17 17 16 16 16 15 14 14 13 13 13 13 13 12 12 12 12 12 12 12 12 12 12 12 12 12 12 12 12 12
17 16 15 13 14 14 15 17 18 21 22 19 15 14 15 15 15 16 16 17 17 16 16 15 14 14 14 13 13 13 13 13 12 12 12 12 12 12 12 12 12 12 12 12 12 12 12 12 12
14 16 14 15 12 13 15 15 16 20 20 18 15 15 15 16 16 17 17 17 17 16 15 15 14 14 14 13 13 13 13 13 12 12 12 12 12 12 12 12 12 12 12 12 12 12 12 12 12
18 16 15 16 14 14 14 15 18 18 18 17 16 17 16 16 17 17 17 17 17 16 15 15 14 14 14 13 13 13 13 13 12 12 12 12 12 12 12 13 13 12 12 12 12 12 12 12 12

GFSSGP_850_temp_030.txt.gz
Temp
21 21 20 21 26 26 28 29 30 30 30 29 28 29 30 30 30 29 27 27 26 26 25 24 23 22 22 21 20 20 19 19 18 18 18 17 17 16 16 16 16 16 15 15 15 15 15 15 15
21 21 20 25 27 28 30 30 29 30 29 28 29 29 29 30 29 28 27 27 26 25 25 24 23 22 22 21 20 20 19 19 18 18 17 17 17 16 16 15 15 15 15 15 15 14 14 14 14
20 20 24 27 28 29 30 30 31 29 29 29 29 28 29 29 28 28 27 27 26 25 24 24 23 22 22 21 20 20 19 18 18 17 17 16 16 16 15 14 14 14 14 14 15 13 13 13 13
20 21 24 26 28 30 30 31 30 30 29 29 29 30 28 28 27 26 26 27 26 25 24 24 23 22 22 21 20 20 19 19 18 17 17 16 16 15 14 14 14 13 13 13 14 14 13 13 13
21 25 27 27 29 30 30 29 29 30 29 29 29 30 29 27 27 27 26 26 25 24 24 24 23 22 22 21 20 20 19 18 18 18 17 16 16 15 14 14 13 13 13 13 13 13 14 13 13
24 25 27 28 29 29 30 29 29 29 30 29 29 29 29 27 26 25 24 24 24 23 24 22 23 22 22 21 20 20 19 18 18 17 17 16 16 15 14 14 13 13 13 13 13 13 13 13 13
25 27 27 29 29 29 30 29 29 30 29 29 28 29 29 28 25 25 24 23 23 22 22 23 23 22 21 21 20 19 19 18 17 17 16 15 15 14 14 14 13 13 13 13 12 12 13 13 13
24 27 27 28 28 28 29 28 28 29 29 27 26 29 29 28 25 24 24 24 23 22 21 22 23 22 22 21 20 19 18 18 17 16 16 15 14 14 14 13 13 13 13 13 12 12 12 12 12
23 25 26 28 28 29 28 29 27 26 27 27 27 27 27 26 24 25 24 24 24 23 21 21 20 19 21 20 19 19 18 17 17 16 16 15 13 14 13 13 12 13 13 13 13 13 12 12 12
24 26 27 29 29 29 29 28 28 26 27 27 28 27 27 25 25 25 25 25 24 23 22 21 19 19 18 18 17 19 17 16 15 14 14 14 13 13 13 13 12 13 12 12 13 13 13 12 12
24 26 28 28 28 28 28 27 28 27 27 27 28 27 26 26 26 26 25 26 25 25 23 21 19 19 18 18 17 16 16 16 15 15 14 14 13 13 13 13 12 12 12 12 12 12 12 12 13
25 26 26 27 27 27 27 26 27 27 27 26 26 26 26 26 26 26 27 26 26 25 24 22 19 20 19 18 17 17 16 16 15 14 15 16 13 13 12 13 13 12 12 12 11 12 12 11 12
26 26 26 25 25 26 26 26 26 26 26 25 26 26 26 26 26 26 26 26 25 24 24 22 19 18 21 20 17 17 17 16 15 14 14 15 14 13 13 12 12 12 12 12 11 12 12 12 12
25 26 26 25 25 25 26 26 26 26 25 26 26 26 26 26 26 26 25 25 25 25 23 21 18 20 21 21 20 19 19 16 17 14 14 15 14 12 13 12 12 12 12 12 11 12 12 12 12
24 25 26 25 25 26 25 25 26 26 26 26 26 26 26 25 25 25 25 25 24 24 22 20 20 20 21 21 20 18 17 17 15 14 15 15 14 12 12 12 11 11 11 11 10 11 11 11 12
24 24 24 26 26 25 25 24 28 27 27 27 26 26 26 25 25 25 25 25 24 24 23 21 19 19 21 21 20 17 16 16 14 14 13 14 13 12 12 12 12 12 11 10 10 11 11 11 11
24 23 24 25 27 26 25 25 28 27 27 26 25 26 26 25 25 25 24 24 23 24 22 21 19 17 20 19 18 18 17 16 14 14 13 13 12 12 12 12 12 11 11 11 11 11 11 11 11
23 23 24 25 27 25 25 25 27 27 26 26 26 26 25 25 25 25 24 22 25 25 22 19 18 18 18 18 17 17 14 14 14 14 13 12 12 12 11 12 12 11 11 11 10 11 10 11 10
24 24 25 25 27 25 25 26 27 28 26 26 26 26 26 25 25 24 22 24 24 23 20 17 16 16 16 15 15 15 15 15 14 14 13 12 12 12 12 12 12 11 11 10 11 11 11 10 10
22 23 24 25 26 26 25 25 27 27 27 26 26 26 26 26 26 25 20 21 21 20 18 17 15 16 16 15 15 15 15 15 14 14 12 12 12 12 12 12 11 10 10 10 10 11 10 10 11
22 22 23 23 25 25 24 23 24 26 27 26 26 25 26 26 26 24 18 17 18 18 17 15 14 16 15 15 14 15 14 14 14 14 13 12 12 11 12 12 11 11 10 11 11 11 10 11 11
22 23 22 23 22 22 24 23 24 26 26 27 26 26 27 26 26 22 19 17 16 15 15 14 14 16 16 16 14 14 15 16 15 14 13 12 11 11 12 12 11 10 11 11 11 10 10 11 11
23 24 23 22 22 22 23 22 24 25 25 26 27 26 27 26 24 21 19 17 16 15 15 15 16 16 15 15 14 14 14 14 13 13 12 12 12 12 12 11 11 10 12 12 11 11 11 11 12
23 23 22 22 22 21 22 22 23 24 25 26 28 27 27 24 21 19 18 17 16 16 15 14 14 13 14 13 14 14 13 13 13 13 12 12 12 12 11 11 11 12 11 10 11 11 10 11 12
22 21 20 20 20 20 23 22 23 24 26 26 28 27 25 22 20 18 17 17 16 16 15 15 14 13 13 13 13 13 12 12 12 12 12 12 12 12 11 11 11 11 11 10 11 11 11 12 12
21 22 22 20 21 22 23 22 24 25 26 26 26 27 25 22 20 19 18 17 17 16 15 15 14 14 13 13 13 12 12 13 13 12 12 12 12 11 11 11 11 11 11 11 11 12 12 12 12
21 22 24 23 24 23 25 24 24 24 26 27 27 26 24 22 20 19 18 17 17 16 15 15 15 14 14 14 13 13 12 12 13 12 12 13 12 11 11 11 11 11 11 11 11 12 11 12 12
23 23 21 23 21 21 24 24 23 26 27 27 27 27 25 21 20 19 18 17 17 16 15 15 15 14 14 14 13 13 13 12 12 12 12 12 12 12 11 11 11 11 11 11 11 12 11 12 12
22 22 23 23 23 22 22 24 25 25 27 27 28 27 23 21 20 19 18 17 17 16 16 15 15 14 14 14 13 13 13 12 12 12 12 12 12 11 12 12 11 11 11 11 12 12 11 11 12
23 23 22 22 21 23 24 24 24 26 26 28 29 25 22 21 20 19 19 18 17 17 16 15 15 15 14 14 13 13 13 12 12 12 12 12 12 12 12 12 11 12 11 11 11 12 12 11 11

GFSSGP_850_temp_033.txt.gz
Temp
22 22 21 22 27 30 31 32 34 33 32 32 31 32 33 32 32 31 28 27 27 25 26 25 24 23 22 22 21 20 20 19 19 19 18 18 17 17 16 16 16 15 15 15 15 15 15 15 15
21 20 22 25 28 30 32 34 32 33 32 31 31 31 32 32 31 31 29 27 27 25 26 25 24 23 22 22 21 20 20 19 19 18 18 17 17 16 16 15 15 15 15 15 15 14 15 14 14
21 22 25 29 30 31 31 31 33 33 31 31 32 31 31 31 30 30 28 27 26 24 26 25 24 23 22 22 21 20 20 19 19 18 18 17 17 16 16 15 15 15 14 14 14 13 12 14 14
22 23 25 28 30 33 33 34 34 32 32 31 31 32 31 29 29 28 27 26 26 25 23 25 24 23 22 22 21 21 20 19 19 18 17 17 16 16 15 15 14 14 14 14 14 13 13 13 13
23 26 29 30 30 33 33 33 33 33 32 32 31 31 31 29 28 27 26 26 26 25 24 23 24 23 23 22 22 21 20 20 19 18 18 17 16 16 15 14 14 14 14 14 13 13 13 13 13
25 26 28 29 31 33 33 32 32 32 32 32 31 31 31 29 28 28 27 26 26 26 24 23 23 23 23 22 22 21 20 19 19 18 18 17 16 16 15 14 14 14 14 13 13 13 13 13 13
26 29 29 30 31 32 32 32 32 32 32 32 31 31 31 30 27 27 26 26 25 26 24 23 23 23 22 22 21 21 20 19 19 18 18 17 16 15 15 14 14 14 13 13 14 14 14 13 13
25 29 28 30 30 31 33 31 31 31 32 30 29 30 31 30 28 27 28 27 27 26 25 23 21 22 22 21 21 21 20 19 18 18 17 17 16 15 14 14 14 14 13 13 13 13 14 14 14
26 27 27 29 30 31 32 32 31 30 29 30 30 30 30 29 28 28 28 28 28 27 26 24 23 21 20 20 19 20 20 19 18 18 17 16 15 14 15 15 14 13 13 13 13 13 13 14 14
25 27 28 30 31 31 32 32 31 31 30 30 29 30 30 29 28 28 28 29 28 28 27 25 23 22 20 19 18 18 19 19 19 18 15 14 15 15 15 15 14 13 13 13 13 13 13 13 12
26 26 29 30 30 30 31 31 31 30 30 30 30 29 29 29 28 28 28 28 29 28 28 26 24 22 21 20 20 18 17 16 16 16 15 15 15 15 15 15 15 14 13 13 13 13 13 12 13
27 28 28 28 29 29 31 30 30 30 30 29 29 28 28 28 28 28 28 28 28 29 28 27 24 22 20 20 20 19 18 18 17 17 15 15 14 14 14 15 15 14 13 13 13 13 13 13 13
28 28 28 28 28 29 29 29 30 29 29 29 28 28 28 28 28 28 28 28 27 27 28 26 25 22 21 19 20 19 19 18 18 17 16 14 15 15 15 15 14 13 14 13 12 13 13 13 13
28 28 28 28 28 28 29 29 29 28 28 28 28 28 28 28 28 28 28 27 27 27 27 25 25 22 21 19 19 19 18 18 17 17 16 15 14 14 14 14 14 13 13 12 12 12 13 13 13
27 27 28 29 28 29 28 28 28 28 28 29 28 28 28 28 28 28 28 27 26 26 25 24 24 22 20 18 18 18 17 18 17 16 16 15 14 14 14 14 14 13 13 12 12 12 12 12 13
26 27 26 28 29 28 28 26 29 28 29 29 29 29 29 28 28 28 27 27 26 25 25 23 23 21 18 17 17 17 17 16 17 17 16 14 13 13 13 13 13 12 12 13 12 11 12 12 12
25 25 25 26 29 29 28 27 29 28 29 28 29 29 28 28 28 27 27 26 26 25 24 22 21 19 17 16 16 16 17 16 16 16 16 15 14 13 13 13 12 13 13 12 12 12 11 12 12
24 24 25 26 28 28 28 28 30 29 28 28 29 28 28 28 28 27 27 26 25 23 22 21 19 18 17 16 15 16 16 16 16 16 16 15 14 13 13 13 13 13 13 12 12 11 12 12 11
26 26 26 27 29 27 27 28 29 29 28 29 29 28 28 27 27 27 27 24 22 20 19 18 17 17 16 16 16 17 17 16 16 16 15 14 13 13 13 13 13 13 13 12 11 11 11 11 11
24 25 25 27 28 28 28 27 29 29 28 28 28 29 28 27 28 27 26 22 20 18 17 17 16 16 15 16 17 18 17 17 17 17 16 14 14 13 13 13 13 13 12 11 11 11 12 12 12
24 24 24 25 27 28 27 27 27 29 29 28 27 27 28 28 27 27 25 21 19 18 17 16 16 15 16 17 17 16 16 16 16 16 15 14 13 13 13 12 12 12 12 11 12 11 11 11 11
23 26 25 25 25 24 27 25 27 28 28 28 28 28 28 28 28 28 24 20 19 18 16 16 15 15 16 15 16 16 17 17 17 16 16 14 13 12 12 12 12 11 11 12 12 12 12 11 11
25 26 26 25 24 24 25 25 26 27 27 28 29 28 28 28 28 28 23 21 19 17 16 15 15 15 15 16 16 15 16 17 16 16 15 13 13 13 12 12 11 12 12 12 12 12 12 11 12
26 25 25 25 25 23 24 24 25 26 27 28 29 28 28 28 28 26 23 20 18 18 16 15 15 15 14 15 15 15 15 15 16 15 15 13 13 13 12 12 12 12 12 12 11 11 11 12 12
25 24 23 22 24 24 25 25 26 27 28 28 28 28 29 29 26 24 21 20 18 18 17 16 15 15 15 15 14 14 14 14 14 14 13 13 13 13 12 12 12 12 12 12 12 12 12 12 13
24 24 23 21 23 24 26 24 26 28 29 28 28 28 29 26 25 23 21 20 19 18 17 17 16 15 15 15 15 14 14 15 15 14 13 13 13 13 12 12 12 11 12 12 12 12 13 13 13
23 24 26 25 26 26 27 28 28 28 28 28 28 28 28 26 24 22 21 20 19 18 17 17 16 16 15 15 15 14 14 14 14 13 13 13 13 12 12 12 12 12 12 12 13 13 12 13 13
24 26 23 25 22 24 26 27 27 27 28 28 28 29 28 25 23 22 21 20 19 18 17 17 16 16 16 15 15 15 14 14 14 13 13 12 13 13 13 12 12 12 13 12 12 13 12 13 13
23 24 24 25 26 25 24 26 29 28 28 29 29 28 27 25 23 22 21 20 19 18 17 17 17 16 16 16 15 15 14 14 14 13 12 13 12 13 12 12 12 12 12 12 13 12 12 13 13
24 24 24 24 23 26 26 26 28 28 28 30 30 28 27 25 24 22 21 20 19 18 18 17 17 17 16 16 16 15 14 14 13 13 13 12 12 13 13 13 13 13 12 12 12 12 12 12 12